Location: Forest Hills
(36.0651°N, 86.8403°W)
Time: 00:20:04
(UTC+00:00)

ARIANE 6 FM1 Upper Stage - Pass Details

Date: 28 January 2026
Orbit: 522 x 609 km, 62.0° (Epoch: 10 February)

Event Time Altitude Azimuth Distance (km) Brightness Sun altitude
Rises 23:54:53 0° 254° (WSW) 2,714 8.6 -9.6°
Reaches altitude 10° 23:57:50 10° 276° (W) 1,806 6.5 -10.2°
Maximum altitude 00:00:22 16° 315° (NW) 1,457 5.2 -10.7°
Drops below altitude 10° 00:02:53 10° 354° (N) 1,786 5.1 -11.1°
Enters shadow 00:05:45 - 17° (NNE) 2,653 5.8 -11.7°
